Location: Arroyo Grande
(40.2671°N, 4.2512°W)
Time: 19:34:34
(UTC+00:00)

Cosmos 2219 Rocket - Pass Details

Date: 03 February 2023
Orbit: 826 x 848 km, 71.0° (Epoch: 21 March)

Event Time Altitude Azimuth Distance (km) Brightness Sun altitude
Rises 18:02:37 0° 152° (SSE) 3,349 5.2 -5.3°
Reaches altitude 10° 18:06:13 10° 128° (SE) 2,423 4.3 -6.0°
Maximum altitude 18:09:01 14° 98° (E) 2,143 3.8 -6.5°
Drops below altitude 10° 18:11:50 10° 67° (ENE) 2,435 3.9 -7.0°
Enters shadow 18:12:49 - 59° (ENE) 2,651 4.2 -7.2°
